TimeEDT,TemperatureF,Dew PointF,Humidity,Sea Level PressureIn,VisibilityMPH,Wind Direction,Wind SpeedMPH,Gust SpeedMPH,PrecipitationIn,Events,Conditions,WindDirDegrees,DateUTC
12:53 AM,66.0,63.0,90,30.02,10.0,Calm,Calm,-,N/A,,Clear,0,2012-10-15 04:53:00
1:53 AM,64.9,61.0,87,30.01,10.0,Calm,Calm,-,N/A,,Clear,0,2012-10-15 05:53:00
2:53 AM,64.9,62.1,90,29.99,10.0,Calm,Calm,-,N/A,,Clear,0,2012-10-15 06:53:00
3:21 AM,64.4,60.8,88,29.98,10.0,Calm,Calm,-,N/A,,Partly Cloudy,0,2012-10-15 07:21:00
3:53 AM,66.9,63.0,87,29.98,10.0,Calm,Calm,-,N/A,,Partly Cloudy,0,2012-10-15 07:53:00
4:23 AM,66.2,64.4,94,29.98,10.0,Calm,Calm,-,N/A,,Mostly Cloudy,0,2012-10-15 08:23:00
4:34 AM,66.2,64.4,94,29.98,10.0,Calm,Calm,-,N/A,,Scattered Clouds,0,2012-10-15 08:34:00
4:53 AM,66.9,64.0,90,29.98,10.0,Calm,Calm,-,N/A,,Partly Cloudy,0,2012-10-15 08:53:00
5:53 AM,64.9,62.1,90,29.97,10.0,Calm,Calm,-,N/A,,Clear,0,2012-10-15 09:53:00
6:53 AM,64.9,62.1,90,29.97,10.0,Calm,Calm,-,N/A,Fog,Patches of Fog,0,2012-10-15 10:53:00
7:42 AM,64.4,62.6,94,29.98,0.5,Calm,Calm,-,N/A,Fog,Patches of Fog,0,2012-10-15 11:42:00
7:53 AM,64.4,62.6,94,29.98,0.5,Calm,Calm,-,N/A,Fog,Patches of Fog,0,2012-10-15 11:53:00
7:57 AM,64.4,62.6,94,29.98,1.8,Calm,Calm,-,N/A,Fog,Patches of Fog,0,2012-10-15 11:57:00
8:07 AM,64.4,62.6,94,29.98,0.8,Calm,Calm,-,N/A,Fog,Patches of Fog,0,2012-10-15 12:07:00
8:11 AM,64.4,62.6,94,29.99,2.0,Calm,Calm,-,N/A,Fog,Patches of Fog,0,2012-10-15 12:11:00
8:18 AM,64.4,62.6,94,29.99,6.0,Calm,Calm,-,N/A,Fog,Patches of Fog,0,2012-10-15 12:18:00
8:53 AM,66.9,64.9,93,30.00,9.0,Calm,Calm,-,N/A,Fog,Patches of Fog,0,2012-10-15 12:53:00
9:36 AM,71.6,66.2,83,30.01,10.0,Calm,Calm,-,N/A,,Scattered Clouds,0,2012-10-15 13:36:00
9:53 AM,73.0,66.9,81,30.00,10.0,Calm,Calm,-,N/A,,Clear,0,2012-10-15 13:53:00
10:53 AM,80.1,64.9,60,29.97,10.0,WNW,5.8,-,N/A,,Partly Cloudy,290,2012-10-15 14:53:00
11:53 AM,82.0,63.0,52,29.96,10.0,West,6.9,-,N/A,,Partly Cloudy,270,2012-10-15 15:53:00
12:53 PM,84.9,64.0,49,29.94,10.0,WSW,9.2,-,N/A,,Scattered Clouds,250,2012-10-15 16:53:00
1:53 PM,86.0,63.0,46,29.91,10.0,WNW,9.2,-,N/A,,Partly Cloudy,290,2012-10-15 17:53:00
2:53 PM,87.1,63.0,44,29.87,10.0,NW,4.6,-,N/A,,Partly Cloudy,310,2012-10-15 18:53:00
3:53 PM,87.1,64.9,48,29.85,10.0,WNW,6.9,-,N/A,,Scattered Clouds,290,2012-10-15 19:53:00
4:53 PM,87.1,64.9,48,29.83,10.0,WNW,5.8,-,N/A,,Scattered Clouds,290,2012-10-15 20:53:00
5:53 PM,84.9,66.0,53,29.83,10.0,WSW,4.6,-,N/A,,Scattered Clouds,240,2012-10-15 21:53:00
6:53 PM,82.9,66.0,56,29.84,10.0,NW,4.6,-,N/A,,Scattered Clouds,320,2012-10-15 22:53:00
7:53 PM,80.1,64.9,60,29.86,10.0,NW,5.8,-,N/A,,Partly Cloudy,310,2012-10-15 23:53:00
8:53 PM,77.0,63.0,62,29.88,10.0,North,6.9,-,N/A,,Clear,350,2012-10-16 00:53:00
9:53 PM,73.9,62.1,66,29.89,10.0,NNW,4.6,-,N/A,,Clear,340,2012-10-16 01:53:00
10:53 PM,71.1,61.0,70,29.90,10.0,NNW,4.6,-,N/A,,Clear,330,2012-10-16 02:53:00
11:53 PM,69.1,60.1,73,29.90,10.0,NNW,3.5,-,N/A,,Clear,340,2012-10-16 03:53:00